"Pseudo-MPEC" for ZTF02Ux

Created 2019 Feb 19 10:18:08 UT using Find_Orb

Click here for an explanation of pseudo-MPECs

 
 Astrometry: 
     ZTF02Ux  C2019 02 08.47139414 05 39.45 +19 44 44.9    ~28K3 17.43gUNEOCPI41
     ZTF02Ux  C2019 02 08.47174014 05 35.95 +19 45 00.0    ~28K3 17.43gUNEOCPI41
     ZTF02Ux  C2019 02 08.47276314 05 25.65 +19 45 46.0    ~28K3 17.49gUNEOCPI41
     ZTF02Ux  C2019 02 08.47311014 05 22.09 +19 46 01.0    ~28K3 17.49gUNEOCPI41
     ZTF02Ux  C2019 02 08.49065914 02 26.06 +19 58 31.7    ~28KI 17.42gUNEOCPI41
     ZTF02Ux  C2019 02 08.49100614 02 22.65 +19 58 46.4    ~28KI 17.42gUNEOCPI41

Station data:
(I41) Palomar Mountain--ZTF  (N33.357340 W116.859780)  US/California. 1.2-m
   f/2.44 Oschin Schmidt + CCD.

Orbital elements:  ZTF02Ux
   Perigee 2019 Feb 7.506933 +/- 0.802 TT = 12:09:59 (JD 2458522.006933)
Epoch 2019 Feb  8.0 TT = JDT 2458522.5                        AutoNEOCP
M   0.60186741 +/- 55               (J2000 equator)
n   1.22066120 +/-                  Peri.  293.57944 +/- 70
a   0.01251069 +/-                  Node   254.39324 +/- 5.3
e   0.9689022 +/- 0.516             Incl.  151.86884 +/- 0.06
P 294.92d                  H 29.5   G  0.15   U 15.4  
q 58201.6730 +/- 66594    Q 0.02463232 +/- 0.177
From 6 observations 2019 Feb. 8 (28.2 min); mean residual 0".25
Residuals in arcseconds: 
190208 I41  .07-  .10+    190208 I41  .47+  .27+    190208 I41  .31-  .20-    
190208 I41  .09-  .23-    190208 I41  .30-  .12-    190208 I41  .30+  .20+    

Ephemerides (geocentric):
Date (UTC) HH   RA              Dec         delta   r     elong  mag " sig PA
---- -- -- --  -------------   -----------  ------ ------ -----  --- ---- ---
2019 02 19 10  10 52 19.214   +27 37 31.31  .00746 0.9955 160.9 19.8 274'  97
2019 02 19 11  10 52 09.453   +27 37 19.11  .00748 0.9955 160.9 19.8 275'  97
2019 02 19 12  10 51 59.736   +27 37 06.86  .00749 0.9956 160.9 19.8 276'  97
2019 02 19 13  10 51 50.062   +27 36 54.56  .00751 0.9956 161.0 19.8 278'  97
2019 02 19 14  10 51 40.429   +27 36 42.21  .00753 0.9956 161.0 19.8 279'  97
2019 02 19 15  10 51 30.840   +27 36 29.82  .00755 0.9956 161.0 19.8 280'  97
2019 02 19 16  10 51 21.291   +27 36 17.37  .00756 0.9957 161.0 19.8 281'  97
2019 02 19 17  10 51 11.785   +27 36 04.87  .00758 0.9957 161.1 19.8 282'  97
2019 02 19 18  10 51 02.319   +27 35 52.33  .00760 0.9957 161.1 19.8 283'  96
2019 02 19 19  10 50 52.893   +27 35 39.74  .00761 0.9957 161.1 19.8 284'  96
2019 02 19 20  10 50 43.508   +27 35 27.10  .00763 0.9958 161.2 19.8 285'  96
2019 02 19 21  10 50 34.163   +27 35 14.42  .00765 0.9958 161.2 19.9 286'  96
2019 02 19 22  10 50 24.857   +27 35 01.69  .00767 0.9958 161.2 19.9 287'  96
2019 02 19 23  10 50 15.590   +27 34 48.92  .00768 0.9959 161.2 19.9 288'  96
2019 02 20 00  10 50 06.362   +27 34 36.10  .00770 0.9959 161.3 19.9 289'  96
2019 02 20 01  10 49 57.172   +27 34 23.24  .00772 0.9959 161.3 19.9 290'  96
2019 02 20 02  10 49 48.021   +27 34 10.33  .00774 0.9959 161.3 19.9 291'  96
2019 02 20 03  10 49 38.907   +27 33 57.38  .00775 0.9960 161.3 19.9 292'  96
2019 02 20 04  10 49 29.830   +27 33 44.39  .00777 0.9960 161.4 19.9 293'  96
2019 02 20 05  10 49 20.790   +27 33 31.35  .00779 0.9960 161.4 19.9 294'  96
2019 02 20 06  10 49 11.787   +27 33 18.28  .00780 0.9960 161.4 19.9 296'  96
2019 02 20 07  10 49 02.821   +27 33 05.16  .00782 0.9961 161.4 19.9 297'  96
2019 02 20 08  10 48 53.890   +27 32 52.00  .00784 0.9961 161.5 19.9 298'  96
2019 02 20 09  10 48 44.995   +27 32 38.80  .00786 0.9961 161.5 19.9 299'  96
2019 02 20 10  10 48 36.136   +27 32 25.56  .00787 0.9961 161.5 19.9 300'  96
2019 02 20 11  10 48 27.311   +27 32 12.28  .00789 0.9962 161.5 19.9 301'  96
2019 02 20 12  10 48 18.522   +27 31 58.96  .00791 0.9962 161.5 19.9 302'  96
2019 02 20 13  10 48 09.766   +27 31 45.61  .00792 0.9962 161.6 19.9 303'  96
2019 02 20 14  10 48 01.045   +27 31 32.21  .00794 0.9962 161.6 19.9 304'  95
2019 02 20 15  10 47 52.358   +27 31 18.77  .00796 0.9963 161.6 19.9 305'  95
2019 02 20 16  10 47 43.704   +27 31 05.30  .00797 0.9963 161.6 19.9 306'  95
2019 02 20 17  10 47 35.083   +27 30 51.79  .00799 0.9963 161.7 19.9 307'  95
2019 02 20 18  10 47 26.496   +27 30 38.24  .00801 0.9964 161.7 19.9 308'  95
2019 02 20 19  10 47 17.941   +27 30 24.66  .00802 0.9964 161.7 19.9 309'  95
2019 02 20 20  10 47 09.418   +27 30 11.03  .00804 0.9964 161.7 19.9 310'  95
2019 02 20 21  10 47 00.928   +27 29 57.37  .00806 0.9964 161.7 19.9 311'  95
2019 02 20 22  10 46 52.469   +27 29 43.68  .00808 0.9965 161.7 20.0 312'  95
2019 02 20 23  10 46 44.042   +27 29 29.95  .00809 0.9965 161.8 20.0 313'  95
2019 02 21 00  10 46 35.646   +27 29 16.18  .00811 0.9965 161.8 20.0 314'  95
2019 02 21 01  10 46 27.281   +27 29 02.38  .00813 0.9965 161.8 20.0 315'  95
2019 02 21 02  10 46 18.946   +27 28 48.54  .00814 0.9966 161.8 20.0 316'  95
2019 02 21 03  10 46 10.642   +27 28 34.67  .00816 0.9966 161.8 20.0 317'  95
2019 02 21 04  10 46 02.369   +27 28 20.77  .00818 0.9966 161.9 20.0 318'  95
2019 02 21 05  10 45 54.125   +27 28 06.83  .00819 0.9966 161.9 20.0 319'  95
2019 02 21 06  10 45 45.911   +27 27 52.85  .00821 0.9967 161.9 20.0 320'  95
2019 02 21 07  10 45 37.726   +27 27 38.84  .00823 0.9967 161.9 20.0 321'  95
2019 02 21 08  10 45 29.571   +27 27 24.80  .00824 0.9967 161.9 20.0 321'  95
2019 02 21 09  10 45 21.444   +27 27 10.72  .00826 0.9967 161.9 20.0 322'  95